This is the latest recevied weather packets stored in our database for station/object CE3PA-5. If no packets are shown the sender has not sent any weather packets the latest 10 day(s).
| Time | Temp. | Humidity | Pressure | Rain* | Wind** | Luminosity | Snow |
|---|---|---|---|---|---|---|---|
| 1778020858 | 13.33° C | 21% | 753.8 hPa | - | - | - | - |
| 1778018158 | 14.44° C | 21% | 753.8 hPa | - | - | - | - |
| 1778017258 | 14.44° C | 21% | 753.6 hPa | - | - | - | - |
| 1778016358 | 15° C | 21% | 753.7 hPa | - | - | - | - |
| 1778014557 | 15.56° C | 21% | 754 hPa | - | - | - | - |
| 1778012759 | 16.67° C | 21% | 754.2 hPa | - | - | - | - |
| 1778010956 | 17.22° C | 21% | 754.2 hPa | - | - | - | - |
| 1778010056 | 17.78° C | 21% | 754.2 hPa | - | - | - | - |
| 1778009156 | 18.33° C | 21% | 754.2 hPa | - | - | - | - |
| 1778008256 | 18.89° C | 20% | 754.2 hPa | - | - | - | - |
| 1778007355 | 18.89° C | 20% | 754.2 hPa | - | - | - | - |
| 1778005555 | 20° C | 19% | 754.2 hPa | - | - | - | - |
| 1778003755 | 22.78° C | 18% | 754.2 hPa | - | - | - | - |
| 1778002859 | 24.44° C | 17% | 754.3 hPa | - | - | - | - |
| 1778001958 | 25° C | 17% | 754.6 hPa | - | - | - | - |
| 1778001058 | 25° C | 17% | 754.6 hPa | - | - | - | - |
| 1778000159 | 26.11° C | 17% | 754.7 hPa | - | - | - | - |
| 1777999259 | 25.56° C | 17% | 754.8 hPa | - | - | - | - |
| 1777998357 | 26.11° C | 16% | 754.8 hPa | - | - | - | - |
| 1777997457 | 25.56° C | 16% | 755 hPa | - | - | - | - |
| 1777996557 | 25° C | 16% | 755.1 hPa | - | - | - | - |
| 1777994756 | 22.78° C | 17% | 755.3 hPa | - | - | - | - |
| 1777993857 | 20.56° C | 17% | 755.4 hPa | - | - | - | - |
| 1777992957 | 18.89° C | 17% | 755.5 hPa | - | - | - | - |
| 1777992056 | 17.78° C | 18% | 755.4 hPa | - | - | - | - |
* Rain since midnight (hover to see other rain measurements)
** Current wind speed in m/s (hover to see current wind gust speed)